When you browse on this site, cookies collect data to enhance your experience and personalize the content and advertising you see.
Visit our Privacy Policy to learn more. By continuing to use the site, you agree to this use of cookies and data.
  • In Hungary
  • List of Countries
  • For 7 days
  • Water Temperature
  • Satellite Maps
  • Weather Map
  • News
  • Weather Widgets
  • user-avatar
    Login

    Hourly Weather Kebili

    Today, 19 April, Friday

    Time Temperature Precipitation Wind Pressure Humidity
    00:00 +22°C° 0 mm 10 mps 758 mmHg 46%
    01:00 +21°C° 0 mm 10 mps 758 mmHg 49%
    02:00 +21°C° 0 mm 10 mps 758 mmHg 53%
    03:00 +19°C° 0 mm 11 mps 758 mmHg 57%
    04:00 +19°C° 0 mm 11 mps 758 mmHg 60%
    05:00 +18°C° 0 mm 11 mps 758 mmHg 62%
    06:00 +18°C° 0 mm 11 mps 758 mmHg 64%
    07:00 +18°C° 0 mm 11 mps 758 mmHg 66%
    08:00 +21°C° 0 mm 11 mps 758 mmHg 58%
    09:00 +23°C° 0 mm 11 mps 759 mmHg 50%
    10:00 +24°C° 0 mm 12 mps 759 mmHg 43%
    11:00 +28°C° 0 mm 11 mps 758 mmHg 35%
    12:00 +32°C° 0 mm 10 mps 758 mmHg 27%
    13:00 +34°C° 0 mm 10 mps 758 mmHg 19%
    14:00 +36°C° 0 mm 10 mps 757 mmHg 18%
    15:00 +36°C° 0 mm 10 mps 757 mmHg 17%
    16:00 +37°C° 0 mm 10 mps 756 mmHg 17%
    17:00 +33°C° 0 mm 12 mps 756 mmHg 26%
    18:00 +29°C° 0 mm 14 mps 756 mmHg 35%
    19:00 +24°C° 0 mm 16 mps 756 mmHg 44%
    20:00 +24°C° 0 mm 15 mps 756 mmHg 47%
    21:00 +23°C° 0 mm 15 mps 757 mmHg 50%
    22:00 +22°C° 0 mm 15 mps 757 mmHg 53%
    23:00 +22°C° 0 mm 14 mps 757 mmHg 53%

    Tomorrow, 20 April, Saturday

    Time Temperature Precipitation Wind Pressure Humidity
    00:00 +20°C° 0 mm 14 mps 757 mmHg 54%
    01:00 +20°C° 0 mm 14 mps 757 mmHg 54%
    02:00 +20°C° 0 mm 13 mps 756 mmHg 55%
    03:00 +19°C° 0 mm 13 mps 756 mmHg 56%
    04:00 +19°C° 0 mm 12 mps 756 mmHg 57%
    05:00 +19°C° 0 mm 12 mps 756 mmHg 58%
    06:00 +18°C° 0 mm 12 mps 756 mmHg 59%
    07:00 +18°C° 0 mm 12 mps 756 mmHg 60%
    08:00 +22°C° 0 mm 12 mps 756 mmHg 48%
    09:00 +26°C° 0 mm 11 mps 756 mmHg 36%
    10:00 +29°C° 0 mm 10 mps 756 mmHg 24%
    11:00 +33°C° 0 mm 10 mps 755 mmHg 19%
    12:00 +37°C° 0 mm 9 mps 755 mmHg 14%
    13:00 +40°C° 0 mm 9 mps 754 mmHg 9%
    14:00 +40°C° 0 mm 8 mps 753 mmHg 9%
    15:00 +40°C° 0 mm 8 mps 753 mmHg 10%
    16:00 +40°C° 0 mm 8 mps 752 mmHg 10%
    17:00 +37°C° 0 mm 9 mps 752 mmHg 18%
    18:00 +33°C° 0 mm 11 mps 752 mmHg 26%
    19:00 +28°C° 0 mm 13 mps 752 mmHg 34%
    20:00 +27°C° 0 mm 12 mps 752 mmHg 39%
    21:00 +26°C° 0 mm 12 mps 753 mmHg 44%
    22:00 +23°C° 0 mm 12 mps 753 mmHg 48%
    23:00 +22°C° 0 mm 12 mps 753 mmHg 51%

    Day after tomorrow, 21 April, Sunday

    Time Temperature Precipitation Wind Pressure Humidity
    00:00 +22°C° 0 mm 12 mps 752 mmHg 54%
    01:00 +21°C° 0 mm 11 mps 752 mmHg 58%
    02:00 +21°C° 0 mm 11 mps 751 mmHg 56%
    03:00 +21°C° 0 mm 10 mps 751 mmHg 54%
    04:00 +21°C° 0 mm 10 mps 750 mmHg 52%
    05:00 +21°C° 0 mm 9 mps 750 mmHg 49%
    06:00 +22°C° 0 mm 8 mps 750 mmHg 46%
    07:00 +22°C° 0 mm 8 mps 750 mmHg 44%
    08:00 +26°C° 0 mm 7 mps 750 mmHg 36%
    09:00 +28°C° 0 mm 6 mps 750 mmHg 28%
    10:00 +32°C° 0 mm 5 mps 750 mmHg 21%
    11:00 +35°C° 0 mm 5 mps 750 mmHg 16%
    12:00 +38°C° 0 mm 6 mps 749 mmHg 11%
    13:00 +41°C° 0 mm 6 mps 749 mmHg 7%
    14:00 +42°C° 0 mm 9 mps 749 mmHg 7%
    15:00 +43°C° 0 mm 11 mps 748 mmHg 7%
    16:00 +43°C° 0 mm 14 mps 748 mmHg 6%
    17:00 +42°C° 0 mm 11 mps 748 mmHg 8%
    18:00 +39°C° 0 mm 7 mps 747 mmHg 9%
    19:00 +37°C° 0 mm 4 mps 747 mmHg 10%
    20:00 +36°C° 0.1 mm 5 mps 747 mmHg 13%
    21:00 +35°C° 0.1 mm 6 mps 748 mmHg 15%
    22:00 +34°C° 0.1 mm 8 mps 748 mmHg 18%
    23:00 +34°C° 0 mm 8 mps 748 mmHg 17%

    22 April, Monday

    Time Temperature Precipitation Wind Pressure Humidity
    00:00 +34°C° 0 mm 9 mps 748 mmHg 17%
    01:00 +34°C° 0 mm 10 mps 748 mmHg 17%
    02:00 +33°C° 0 mm 9 mps 748 mmHg 17%
    03:00 +32°C° 0 mm 8 mps 748 mmHg 17%
    04:00 +30°C° 0 mm 7 mps 747 mmHg 17%
    05:00 +29°C° 0 mm 7 mps 747 mmHg 19%
    06:00 +28°C° 0 mm 8 mps 747 mmHg 20%
    07:00 +27°C° 0 mm 8 mps 747 mmHg 21%
    08:00 +28°C° 0 mm 10 mps 748 mmHg 21%
    09:00 +29°C° 0 mm 11 mps 748 mmHg 21%
    10:00 +29°C° 0 mm 13 mps 748 mmHg 22%
    11:00 +31°C° 0 mm 13 mps 748 mmHg 21%
    12:00 +31°C° 0 mm 13 mps 748 mmHg 21%
    13:00 +32°C° 0 mm 13 mps 748 mmHg 20%
    14:00 +32°C° 0 mm 13 mps 748 mmHg 19%
    15:00 +32°C° 0 mm 13 mps 748 mmHg 18%
    16:00 +33°C° 0 mm 13 mps 748 mmHg 17%
    17:00 +32°C° 0 mm 11 mps 748 mmHg 18%
    18:00 +31°C° 0 mm 9 mps 749 mmHg 20%
    19:00 +31°C° 0 mm 8 mps 749 mmHg 21%
    20:00 +29°C° 0 mm 7 mps 750 mmHg 22%
    21:00 +29°C° 0 mm 6 mps 750 mmHg 22%
    22:00 +28°C° 0 mm 5 mps 751 mmHg 23%
    23:00 +27°C° 0 mm 4 mps 751 mmHg 25%

    23 April, Tuesday

    Time Temperature Precipitation Wind Pressure Humidity
    00:00 +26°C° 0 mm 4 mps 751 mmHg 27%
    01:00 +26°C° 0 mm 4 mps 751 mmHg 29%
    02:00 +25°C° 0 mm 3 mps 751 mmHg 32%
    03:00 +24°C° 0 mm 2 mps 751 mmHg 35%
    04:00 +24°C° 0 mm 2 mps 751 mmHg 38%
    05:00 +24°C° 0 mm 1 mps 751 mmHg 38%
    06:00 +24°C° 0 mm 1 mps 752 mmHg 38%
    07:00 +22°C° 0 mm 0 mps 753 mmHg 37%
    08:00 +25°C° 0 mm 1 mps 753 mmHg 33%
    09:00 +27°C° 0 mm 1 mps 753 mmHg 30%
    10:00 +28°C° 0 mm 2 mps 754 mmHg 26%
    11:00 +29°C° 0 mm 2 mps 753 mmHg 23%
    12:00 +30°C° 0 mm 1 mps 753 mmHg 21%
    13:00 +32°C° 0 mm 1 mps 753 mmHg 18%
    14:00 +32°C° 0 mm 1 mps 753 mmHg 17%
    15:00 +32°C° 0 mm 1 mps 752 mmHg 16%
    16:00 +33°C° 0 mm 1 mps 752 mmHg 14%
    17:00 +33°C° 0 mm 1 mps 752 mmHg 15%
    18:00 +32°C° 0 mm 1 mps 752 mmHg 16%
    19:00 +32°C° 0 mm 1 mps 752 mmHg 16%
    20:00 +31°C° 0 mm 3 mps 753 mmHg 17%
    21:00 +32°C° 0 mm 4 mps 753 mmHg 18%
    22:00 +30°C° 0 mm 6 mps 753 mmHg 18%
    23:00 +29°C° 0 mm 6 mps 753 mmHg 19%

    24 April, Wednesday

    Time Temperature Precipitation Wind Pressure Humidity
    00:00 +28°C° 0 mm 7 mps 753 mmHg 21%
    01:00 +28°C° 0 mm 7 mps 752 mmHg 22%
    02:00 +27°C° 0 mm 7 mps 752 mmHg 24%
    03:00 +26°C° 0 mm 6 mps 752 mmHg 27%
    04:00 +26°C° 0 mm 6 mps 752 mmHg 29%
    05:00 +24°C° 0 mm 7 mps 752 mmHg 32%
    06:00 +24°C° 0 mm 7 mps 752 mmHg 34%
    07:00 +24°C° 0 mm 8 mps 752 mmHg 37%
    08:00 +27°C° 0 mm 8 mps 752 mmHg 32%
    09:00 +29°C° 0 mm 7 mps 752 mmHg 28%
    10:00 +33°C° 0 mm 7 mps 752 mmHg 24%
    11:00 +35°C° 0 mm 7 mps 752 mmHg 18%
    12:00 +38°C° 0 mm 8 mps 752 mmHg 12%
    13:00 +40°C° 0 mm 9 mps 751 mmHg 7%
    14:00 +40°C° 0 mm 9 mps 751 mmHg 7%
    15:00 +40°C° 0 mm 9 mps 751 mmHg 7%
    16:00 +40°C° 0 mm 9 mps 751 mmHg 6%
    17:00 +39°C° 0 mm 7 mps 751 mmHg 7%
    18:00 +37°C° 0 mm 5 mps 751 mmHg 8%
    19:00 +36°C° 0 mm 3 mps 752 mmHg 9%
    20:00 +35°C° 0 mm 3 mps 752 mmHg 10%
    21:00 +34°C° 0 mm 2 mps 753 mmHg 10%
    22:00 +32°C° 0 mm 2 mps 754 mmHg 11%
    23:00 +29°C° 0 mm 5 mps 754 mmHg 25%
    Show more